Tracking 27112 objects as of 26-Mar-2023
HD Live streaming from Space Station
objects crossing your sky now

STARLINK-3984

Track STARLINK-3984 now!
10-day predictions
STARLINK-3984 is classified as:


NORAD ID: 52621
Int'l Code: 2022-052Z
Perigee: 546.2 km
Apogee: 547.5 km
Inclination: 53.2 °
Period: 95.4 minutes
Semi major axis: 6917 km
RCS: Unknown
Launch date: May 14, 2022
Source: United States (US)
Launch site: AIR FORCE EASTERN TEST RANGE (AFETR)
Your satellite tracking list
Your tracking list is empty




NASA's NSSDC Master Catalog

Two Line Element Set (TLE):
1 52621U 22052Z   23084.68963943  .00000173  00000-0  28925-4 0  9993
2 52621  53.2165  77.4265 0000944  91.4083 268.7017 15.08838949 47943
Source of the keplerian elements: AFSPC